Location: Arrodets-la-Barthe
(43.0306°N, 0.2829°E)
Time: 21:50:50
(UTC+00:00)

XW-2B - Visible Passes

Search period start: 22 March 2023 00:00
Search period end: 01 April 2023 00:00
Orbit: 480 x 499 km, 97.5° (Epoch: 22 March)

Date Brightness Start Highest point End Pass type
(mag) Time Alt. Az. Time Alt. Az. Time Alt. Az.
22 Mar ? 05:27:58 10° NE 05:30:30 18° E 05:33:01 10° SE visible
27 Mar ? 05:09:32 10° E 05:10:00 10° E 05:10:26 10° E visible
31 Mar ? 05:10:56 10° ENE 05:11:50 11° E 05:12:44 10° ESE visible
